This is the latest recevied weather packets stored in our database for station/object W3AJR. If no packets are shown the sender has not sent any weather packets the latest 10 day(s).
| Time | Temp. | Humidity | Pressure | Rain* | Wind** | Luminosity | Snow |
|---|---|---|---|---|---|---|---|
| 1778025133 | 25° C | 36% | 1009.3 hPa | 0 mm | - | 7 W/m² | - |
| 1778024829 | 25.56° C | 36% | 1009.2 hPa | 0 mm | - | 13 W/m² | - |
| 1778024527 | 25.56° C | 36% | 1009.3 hPa | 0 mm | - | 22 W/m² | - |
| 1778024223 | 25.56° C | 35% | 1009.3 hPa | 0 mm | - | 32 W/m² | - |
| 1778023921 | 25.56° C | 35% | 1009 hPa | 0 mm | - | 35 W/m² | - |
| 1778023618 | 25.56° C | 34% | 1009.2 hPa | 0 mm | - | 38 W/m² | - |
| 1778023316 | 25.56° C | 34% | 1009.1 hPa | 0 mm | - | 40 W/m² | - |
| 1778023012 | 25.56° C | 34% | 1009.5 hPa | 0 mm | - | 37 W/m² | - |
| 1778022711 | 25.56° C | 33% | 1009.2 hPa | 0 mm | - | 30 W/m² | - |
| 1778022409 | 26.11° C | 32% | 1009.2 hPa | 0 mm | - | 28 W/m² | - |
| 1778022105 | 26.11° C | 32% | 1009.3 hPa | 0 mm | - | 35 W/m² | - |
| 1778021801 | 26.11° C | 31% | 1009.2 hPa | 0 mm | - | 42 W/m² | - |
| 1778021498 | 26.67° C | 31% | 1009.3 hPa | 0 mm | - | 56 W/m² | - |
| 1778021194 | 26.67° C | 30% | 1009.1 hPa | 0 mm | - | 104 W/m² | - |
| 1778020892 | 26.67° C | 30% | 1009.3 hPa | 0 mm | - | 118 W/m² | - |
| 1778020589 | 26.11° C | 29% | 1009.4 hPa | 0 mm | - | 95 W/m² | - |
| 1778020285 | 26.67° C | 29% | 1009.3 hPa | 0 mm | - | 78 W/m² | - |
| 1778019981 | 26.67° C | 29% | 1009.3 hPa | 0 mm | - | 90 W/m² | - |
| 1778019678 | 26.67° C | 28% | 1009.3 hPa | 0 mm | - | 98 W/m² | - |
| 1778019375 | 26.67° C | 28% | 1009.3 hPa | 0 mm | - | 81 W/m² | - |
| 1778019071 | 27.22° C | 28% | 1009.1 hPa | 0 mm | - | 56 W/m² | - |
| 1778018769 | 27.22° C | 28% | 1009.2 hPa | 0 mm | - | 65 W/m² | - |
| 1778018466 | 27.22° C | 27% | 1009.3 hPa | 0 mm | - | 75 W/m² | - |
| 1778018164 | 27.78° C | 27% | 1009.1 hPa | 0 mm | - | 87 W/m² | - |
| 1778017862 | 27.78° C | 27% | 1008.9 hPa | 0 mm | - | 107 W/m² | - |
* Rain latest hour (hover to see other rain measurements)
** Current wind speed in m/s (hover to see current wind gust speed)